Voltar ao catálogo

STARLINK-31513

AtivoComunicaçõesVLEO
NORAD 59529·PAYLOAD·🇺🇸 United States

Lançado Apr 17, 2024 de Cape Canaveral Space Force Station

Loading…

Próximas Passagens (próximas 24 horas)

TLE

AtualizadoSource: CelesTrak SupGP

Época: Sep 14, 2026, 20:57 UTC

1 59529C 24073U   26257.87340278 -.00020307  00000+0 -73553-3 0  2573
2 59529  43.0031 326.3689 0001701 270.2545 168.5738 15.27588365    13

Acompanhe STARLINK-31513 em tempo real com AllMySat

Download on the App Store